Theta_e
289 289 289 289 289 290 291 291 291 292 294 295 298 300 297 297 297 299 299 302 307 311 311 311 310 308 308 305 302 297 295 293 291 288 287 287 287 287 288 288 288 289 290
286 287 287 286 286 287 289 290 290 291 291 292 293 295 294 294 293 295 295 295 296 298 303 305 305 304 303 301 299 296 294 293 291 290 285 285 286 286 287 287 288 287 288
285 285 285 284 284 284 285 288 288 289 290 291 292 292 291 290 290 290 291 291 292 292 294 295 300 301 301 300 298 296 295 294 291 290 291 286 282 282 285 285 286 286 286
285 285 284 283 283 283 284 285 286 286 288 289 289 288 287 286 287 287 288 289 289 289 290 291 292 293 297 297 297 297 294 293 292 290 290 289 288 285 284 284 284 285 286
284 284 283 284 283 283 282 283 284 284 284 284 285 285 283 284 284 284 284 285 286 286 286 287 288 288 289 290 293 294 294 293 292 291 290 288 288 286 285 285 283 284 285
284 284 284 284 282 282 282 282 283 283 283 283 283 282 281 281 281 281 281 282 283 284 284 285 285 286 286 287 288 289 291 292 292 292 290 289 288 287 286 285 285 284 284
283 283 282 281 281 280 281 282 282 282 282 282 282 281 280 280 280 280 280 280 281 281 282 283 283 283 284 284 285 285 286 287 288 290 291 292 290 289 288 287 288 285 283
284 283 283 282 281 280 280 281 281 281 281 281 281 280 280 280 280 279 279 280 280 280 281 281 281 281 282 282 282 282 282 283 283 284 285 288 290 291 289 288 286 286 288
284 283 283 282 281 280 280 279 280 280 281 281 280 280 280 279 279 279 279 278 279 281 280 279 279 280 280 280 280 280 279 280 281 282 283 283 285 286 288 290 288 287 284
284 283 282 282 282 281 280 280 280 279 280 280 280 280 280 280 279 278 278 278 278 278 279 278 278 279 279 280 280 279 279 279 279 280 281 281 282 284 284 285 287 287 286
282 283 281 282 281 281 280 280 280 280 280 280 280 279 279 279 279 278 278 278 278 278 279 279 279 278 278 278 278 278 278 278 278 279 278 280 281 282 282 282 283 284 285
283 282 281 280 280 280 280 280 281 280 280 280 279 280 279 278 278 278 278 278 278 278 278 279 278 278 278 278 277 277 277 277 277 278 279 279 281 279 280 281 281 282 284
282 281 280 279 280 279 280 279 280 280 280 280 279 279 278 277 277 277 277 278 277 277 277 278 277 277 277 277 277 277 277 277 277 278 278 278 279 279 280 280 281 281 283
281 281 279 279 279 278 278 278 278 279 280 279 278 278 277 277 277 277 276 276 276 276 275 275 275 275 276 276 276 276 276 277 277 278 278 278 278 278 279 280 280 281 281
280 280 281 279 277 277 278 278 278 278 278 278 278 277 277 276 276 275 275 274 274 274 273 273 273 273 274 275 275 275 275 276 276 277 278 278 278 281 281 280 280 280 280
282 280 279 279 278 278 278 278 278 279 278 276 275 275 275 275 274 273 272 272 272 271 271 271 270 270 272 274 276 275 274 274 274 274 275 276 277 278 280 281 282 282 280
282 280 279 279 279 278 279 277 277 277 274 273 271 271 272 271 271 270 270 270 269 269 268 268 268 268 268 272 274 274 272 271 271 271 272 273 274 275 276 278 280 280 282
278 278 278 278 278 278 277 277 276 274 273 271 270 270 270 268 268 268 267 267 267 266 266 266 266 266 267 271 272 273 271 270 270 270 270 271 271 272 273 273 273 274 275
278 279 279 278 277 277 276 275 274 273 272 271 271 270 268 265 266 263 264 265 265 264 264 265 264 263 264 269 271 271 269 269 268 269 270 270 270 273 275 273 271 272 273
279 279 278 277 276 275 275 273 272 270 269 271 270 268 267 262 262 263 263 263 262 264 264 264 263 263 262 267 269 270 268 267 268 269 270 272 272 274 275 273 271 269 271
279 278 277 276 275 273 272 271 270 268 269 268 267 265 265 262 261 261 262 261 260 262 260 261 261 261 263 263 269 271 269 268 268 268 269 270 273 274 275 276 272 271 273
278 279 276 274 272 272 270 269 268 268 266 265 263 262 258 259 261 255 258 258 258 258 258 258 259 261 263 266 268 271 272 273 269 268 269 270 273 275 276 276 277 278 277
277 277 274 272 271 269 268 267 267 266 263 261 256 254 257 259 259 255 258 258 256 256 258 259 259 260 263 264 269 271 272 273 271 271 272 276 276 277 276 276 276 274 271
274 272 270 269 267 265 267 265 265 264 258 258 256 258 256 257 257 260 260 258 257 257 259 259 259 262 265 267 268 268 269 272 273 273 272 273 275 276 275 273 273 272 271
271 270 270 269 266 265 264 262 263 260 257 258 259 257 256 256 257 259 259 260 261 262 263 265 266 265 265 267 272 273 271 272 273 274 271 270 270 270 271 268 268 268 268
269 268 266 265 263 262 261 261 258 257 257 258 259 257 257 257 258 258 258 263 267 269 270 271 270 268 271 272 273 274 275 275 274 268 263 263 264 265 266 266 267 269 269
Wind_Speed
6 8 9 10 11 14 15 14 15 14 11 7 4 6 7 7 10 10 16 14 13 12 8 5 5 3 1 2 3 2 3 1 1 2 3 3 6 6 5 4 5 6 6
7 9 10 11 12 11 11 14 14 14 11 8 4 4 3 5 7 9 13 15 15 15 12 10 7 6 4 5 2 1 1 1 3 2 1 5 5 3 5 4 5 6 4
6 7 8 9 8 11 10 12 12 13 11 10 6 5 4 4 7 10 9 12 14 14 14 13 10 9 5 4 2 2 2 3 0 3 1 2 4 3 3 3 3 4 4
5 5 5 6 7 7 7 10 11 12 12 10 12 14 9 7 4 4 6 8 12 13 12 11 11 11 8 9 6 3 2 1 4 1 5 2 0 3 7 3 3 4 7
5 5 5 5 6 6 7 6 10 13 11 12 12 9 11 6 5 7 11 11 10 12 13 12 11 10 7 7 9 9 7 3 3 3 2 3 3 2 3 10 5 3 4
6 5 4 4 5 5 6 6 10 10 9 12 13 12 12 10 9 9 8 7 6 8 12 11 10 9 9 9 7 6 7 6 4 4 3 3 4 2 4 5 6 8 5
6 6 6 5 5 6 5 6 8 9 6 9 10 9 9 8 9 6 5 6 5 6 9 9 9 7 7 8 8 7 7 6 5 6 6 5 4 3 4 5 10 7 4
6 6 6 5 5 6 6 6 6 7 6 8 8 7 7 5 4 5 4 4 4 4 5 6 7 8 7 7 7 4 4 6 4 7 6 6 6 4 4 6 6 12 11
7 7 7 6 6 6 5 6 6 6 6 6 6 7 6 7 6 6 5 3 4 5 6 6 7 8 8 7 7 4 5 5 5 5 5 4 5 4 5 6 5 7 10
8 7 6 6 4 5 4 5 5 6 5 6 6 5 6 6 5 4 6 5 4 4 5 5 5 6 6 6 7 7 7 6 5 6 6 5 4 5 4 4 5 6 9
9 8 7 6 6 5 5 5 5 5 4 5 4 5 5 6 6 5 5 6 5 6 7 8 9 9 9 7 6 5 7 8 9 8 6 8 6 6 5 4 4 6 6
8 7 7 7 7 6 6 6 4 4 4 3 3 3 4 4 5 5 5 6 6 6 7 7 8 9 10 10 10 11 10 11 11 10 10 11 7 7 6 5 7 7 8
8 7 7 8 7 7 7 6 6 6 6 4 3 1 2 2 3 4 5 5 5 6 6 7 7 10 10 10 10 10 12 12 11 12 11 12 10 11 8 7 8 7 7
8 8 7 8 7 7 7 7 7 6 5 4 3 2 1 2 3 4 4 5 5 6 7 8 9 9 10 10 11 11 12 12 13 14 13 14 12 12 11 10 10 10 9
9 10 9 8 7 7 7 7 6 6 4 4 3 2 2 2 3 4 4 6 7 8 8 11 10 10 10 9 12 13 15 15 16 15 15 14 15 22 21 12 12 12 10
7 8 7 7 8 8 8 6 6 6 5 5 4 3 3 3 5 6 8 9 9 9 10 10 11 12 10 21 24 21 15 16 16 16 15 15 16 19 26 27 28 23 14
8 8 9 9 8 9 8 7 7 6 5 5 3 4 4 4 5 6 7 8 10 10 10 11 11 12 12 22 25 26 15 16 15 16 15 15 12 17 15 20 27 25 26
6 6 6 7 8 4 6 7 7 5 5 3 4 3 3 4 6 7 7 9 8 9 10 11 12 12 11 24 26 27 16 14 15 15 16 16 16 15 17 17 17 18 18
7 7 7 6 4 6 6 7 6 5 4 3 3 2 2 3 5 6 8 8 8 9 10 10 11 12 13 24 26 23 14 14 15 15 15 15 16 21 25 17 16 17 17
5 7 6 3 6 7 7 7 6 5 4 5 3 1 1 3 5 6 7 6 6 10 9 11 11 13 15 22 25 21 11 13 12 13 15 21 22 26 26 17 15 17 15
8 6 6 7 7 7 6 6 5 5 4 4 2 2 3 4 5 5 6 7 8 10 9 11 11 13 14 15 24 25 14 12 12 11 11 11 25 28 27 27 15 17 18
8 7 7 8 7 7 6 6 6 4 4 3 2 3 3 5 4 4 6 5 6 8 9 10 10 9 12 18 20 25 27 25 15 13 12 13 28 30 31 26 29 32 27
8 6 8 8 7 6 5 6 4 5 4 3 3 4 5 5 5 4 8 6 5 5 7 8 9 10 10 10 24 27 28 28 19 14 20 34 34 34 26 26 29 26 13
8 5 8 9 8 6 5 4 5 5 4 4 5 4 4 5 5 5 6 5 5 6 7 9 10 10 10 9 10 12 13 20 18 19 16 20 26 30 26 18 18 12 12
5 7 10 9 7 7 6 5 5 5 4 4 4 4 4 5 5 6 5 6 7 8 9 9 10 11 11 12 24 23 14 13 17 20 11 12 11 11 11 9 11 12 12
5 6 6 6 6 6 6 5 5 6 5 4 3 3 3 4 4 5 6 12 16 18 20 21 16 9 21 28 28 29 30 29 28 11 9 10 10 11 12 12 14 13 13
Wind_Direction
15 23 24 23 23 22 25 26 26 17 29 22 15 34 44 33 37 33 28 23 24 22 23 8 4 3 191 154 128 106 191 209 126 33 315 280 239 244 241 251 259 260 250
35 26 19 20 25 25 27 31 32 30 34 34 15 41 40 40 47 27 31 27 29 24 26 22 21 27 11 9 12 116 91 279 184 145 100 319 323 292 245 221 228 246 262
69 33 25 16 18 28 19 39 31 33 36 43 48 39 53 43 30 23 26 25 29 27 27 27 24 20 20 13 356 330 282 309 282 244 204 290 252 322 331 313 270 273 264
81 58 43 42 28 16 19 40 41 39 29 37 66 67 62 58 9 20 24 31 29 28 26 24 29 29 24 17 359 347 290 235 278 308 232 238 168 298 310 318 301 259 248
110 92 74 56 33 32 33 35 58 55 41 43 54 66 69 60 42 30 34 25 22 26 22 24 26 26 22 15 12 5 351 317 289 249 302 267 239 187 228 289 302 301 253
138 120 101 79 70 43 44 50 65 58 55 62 62 67 69 61 53 38 38 23 15 16 17 15 20 22 19 13 5 1 4 349 322 304 285 251 270 260 239 264 280 267 280
169 154 128 100 77 71 64 71 68 65 51 70 71 71 75 72 66 49 39 26 18 14 8 7 10 16 9 10 4 8 9 3 351 330 314 299 277 250 255 274 284 281 282
183 168 154 144 120 101 87 86 86 87 69 73 71 63 64 66 66 60 43 31 22 358 357 2 357 5 7 9 360 4 354 356 351 335 321 307 296 286 254 262 285 291 282
191 181 173 168 147 132 123 121 108 93 77 81 77 66 61 58 49 38 36 22 355 358 356 354 353 353 356 355 356 348 343 345 330 317 305 295 285 280 276 270 249 260 286
202 186 180 174 160 150 130 109 106 105 100 91 84 81 66 58 51 41 28 12 346 348 345 343 340 338 340 340 342 341 334 334 326 312 309 301 287 289 268 256 266 249 257
198 190 184 178 174 169 164 157 135 121 105 94 85 81 66 48 35 29 10 360 346 350 350 344 341 341 340 337 329 324 313 319 312 311 292 286 279 286 282 266 243 253 254
194 188 183 180 180 186 180 180 172 164 175 161 131 102 80 46 19 1 352 348 340 336 331 329 332 330 328 328 329 324 318 311 306 299 294 294 298 278 266 262 257 246 245
198 189 183 189 190 193 195 192 194 203 199 181 167 76 22 356 318 311 318 321 317 310 310 315 314 319 318 317 315 304 302 298 293 296 291 290 289 288 287 274 275 263 256
193 193 191 198 198 195 198 201 210 205 194 182 172 140 29 355 332 324 330 335 329 322 331 328 322 319 316 311 303 298 294 292 291 291 286 285 283 281 284 277 277 278 271
201 200 200 202 199 201 211 209 213 197 184 170 140 97 24 19 12 11 357 342 338 336 330 325 322 321 318 311 316 312 303 297 291 285 281 280 280 282 282 284 283 277 272
219 208 201 195 200 211 214 202 196 182 151 140 124 66 53 38 22 360 345 338 334 331 327 323 318 317 315 316 312 308 301 300 296 294 294 293 290 286 285 283 282 276 272
209 203 201 201 210 219 211 197 173 142 131 115 93 60 48 19 358 343 335 330 325 322 319 316 316 311 309 310 312 311 302 298 295 293 294 294 292 296 294 291 284 283 283
209 218 215 216 225 204 173 142 139 139 125 96 74 73 36 359 344 336 326 316 313 314 310 309 305 301 305 310 310 308 302 299 296 293 291 291 291 289 290 287 282 279 273
226 222 220 218 189 177 149 134 137 130 116 128 133 102 21 324 322 309 301 302 307 306 300 297 306 301 299 305 306 310 303 296 295 292 290 292 290 288 288 282 278 273 273
207 220 225 182 163 169 151 146 154 147 163 160 158 163 242 249 265 277 294 293 291 294 299 299 299 293 291 296 303 310 296 292 290 288 284 283 286 290 292 291 287 286 289
232 228 190 198 187 148 143 157 158 194 157 137 161 222 253 252 262 270 279 289 290 292 294 292 292 287 282 284 302 306 299 291 285 280 282 280 286 291 290 288 282 276 276
234 212 191 191 161 150 147 163 189 141 131 157 215 253 262 283 280 258 276 272 276 281 291 294 292 284 283 286 296 298 298 295 294 289 281 279 282 283 280 277 271 274 280
232 193 184 166 162 153 153 170 166 146 163 179 245 268 279 279 275 275 285 289 272 270 289 292 292 289 288 285 287 288 292 288 284 277 277 284 288 285 292 296 289 287 276
212 175 159 178 181 161 154 143 153 156 155 210 246 259 251 269 261 267 269 272 278 283 284 283 283 285 292 293 298 284 280 278 282 281 277 272 274 272 276 277 277 273 269
171 171 189 190 174 154 162 162 164 154 189 218 243 244 241 248 263 254 260 267 261 263 277 285 294 302 306 303 305 315 312 303 300 309 317 310 308 306 298 277 268 261 259
160 169 162 151 156 157 170 179 177 177 191 221 241 231 246 251 269 278 288 289 294 300 303 305 308 307 310 312 317 314 316 322 330 327 321 307 305 302 303 303 296 282 258